Meteo Giornale » Osservazioni meteo Grecia » Karpathos
ore: 04:20 - Osservazioni Meteo Karpathos
Lat. 35° 24' N Lon. 27° 8' E Alt. 6 metri s.l.m.
24 °C
Sereno
Temp. 24 Ore
24 °C
29 °C
Nord-Ovest
24 Km/h
Dew point 22 °C
Umidità 88 %
Visibilità 10 Km
Il sole sorge alle ore 06:43
Il sole tramonta alle ore 19:39
| Data e Ora | Cielo e Fenomeni | T °C | DP °C | Um. % | Pres. hPa | Vis. km | Vento km/h | |
|---|---|---|---|---|---|---|---|---|
| Oggi h: 04:20 | Sereno | 24 | 22 | 88 | 1010 | 10 | NO 24 | |
| Oggi h: 03:50 | Sereno | 24 | 22 | 88 | 1010 | 10 | O/NO 29.6 | |
| Oggi h: 03:20 | Sereno | 24 | 22 | 88 | 1010 | 10 | NO 25.9 | |
| Oggi h: 02:50 | Sereno | 24 | 22 | 88 | 1010 | 0 | O/NO 24 | |
| Oggi h: 02:20 | Sereno | 24 | 22 | 88 | 1010 | 0 | NO 25.9 | |
| Oggi h: 01:50 | Sereno | 24 | 22 | 88 | 1010 | 0 | NO 25.9 | |
| Oggi h: 01:20 | Sereno | 24 | 22 | 88 | 1010 | 0 | NO 25.9 | |
| Oggi h: 00:50 | Sereno | 24 | 22 | 88 | 1010 | 0 | NO 27.8 | |
| Oggi h: 00:20 | Sereno | 24 | 21 | 83 | 1010 | 0 | NO 27.8 | |
| Ieri h: 23:50 | Sereno | 24 | 21 | 83 | 1010 | 10 | O/NO 29.6 | |
| Ieri h: 23:20 | Sereno | 24 | 21 | 83 | 1010 | 10 | O/NO 27.8 | |
| Ieri h: 22:50 | Sereno | 24 | 21 | 83 | 1011 | 10 | O/NO 27.8 | |
| Ieri h: 22:20 | Sereno | 24 | 21 | 83 | 1010 | 10 | O/NO 27.8 | |
| Ieri h: 21:50 | Sereno | 24 | 21 | 83 | 1010 | 10 | O/NO 31.5 | |
| Ieri h: 21:20 | Sereno | 25 | 21 | 78 | 1010 | 10 | O/NO 29.6 | |
| Ieri h: 20:50 | Sereno | 25 | 21 | 78 | 1010 | 10 | O/NO 31.5 | |
| Ieri h: 20:20 | Sereno | 25 | 21 | 78 | 1010 | 10 | O/NO 35.2 | |
| Ieri h: 19:50 | Sereno | 25 | 20 | 73 | 1009 | 10 | O/NO 35.2 | |
| Ieri h: 19:20 | Sereno | 26 | 20 | 69 | 1009 | 10 | O/NO 38.8 | |
| Ieri h: 18:50 | Sereno | 26 | 20 | 69 | 1009 | 10 | O/NO 40.7 | |
| Ieri h: 18:20 | Sereno | 27 | 19 | 61 | 1009 | 10 | O/NO 44.4 | |
| Ieri h: 17:50 | Sereno | 27 | 19 | 61 | 1009 | 10 | O/NO 38.8 | |
| Ieri h: 17:20 | Sereno | 28 | 19 | 58 | 1010 | 10 | O/NO 38.8 | |
| Ieri h: 16:50 | Sereno | 28 | 19 | 58 | 1010 | 10 | O/NO 44.4 | |
| Ieri h: 16:20 | Sereno | 28 | 19 | 58 | 1010 | 10 | O/NO 48.1 | |
| Ieri h: 15:50 | Sereno | 29 | 19 | 54 | 1010 | 10 | O/NO 44.4 | |
| Ieri h: 15:20 | Sereno | 29 | 19 | 54 | 1010 | 10 | O/NO 40.7 | |
| Ieri h: 14:50 | Sereno | 28 | 20 | 61 | 1010 | 10 | O/NO 44.4 | |
| Ieri h: 14:20 | Sereno | 28 | 20 | 61 | 1010 | 10 | O/NO 40.7 | |
| Ieri h: 13:50 | Sereno | 28 | 20 | 61 | 1011 | 10 | O/NO 42.6 | |
| Ieri h: 13:20 | Sereno | 28 | 20 | 61 | 1011 | 10 | O/NO 38.8 | |
| Ieri h: 12:50 | Poco Nuvoloso | 28 | 20 | 61 | 1011 | 10 | O 46.3 | |
| Ieri h: 12:20 | Poco Nuvoloso | 29 | 20 | 58 | 1011 | 10 | O/NO 44.4 | |
| Ieri h: 11:50 | Poco Nuvoloso | 28 | 20 | 61 | 1011 | 10 | O 42.6 | |
| Ieri h: 11:20 | Poco Nuvoloso | 28 | 20 | 61 | 1011 | 10 | O/NO 35.2 | |
| Ieri h: 10:50 | Poco Nuvoloso | 28 | 20 | 61 | 1011 | 10 | O/NO 35.2 | |
| Ieri h: 10:20 | Poco Nuvoloso | 27 | 20 | 65 | 1011 | 10 | O/NO 33.3 | |
| Ieri h: 09:50 | Poco Nuvoloso | 27 | 20 | 65 | 1011 | 10 | O/NO 37 | |
| Ieri h: 09:20 | Poco Nuvoloso | 27 | 20 | 65 | 1010 | 10 | O/NO 35.2 | |
| Ieri h: 08:50 | Poco Nuvoloso | 26 | 20 | 69 | 1010 | 10 | O/NO 37 | |
| Ieri h: 08:20 | Poco Nuvoloso | 25 | 21 | 78 | 1010 | 10 | O 31.5 | |
| Ieri h: 07:50 | Poco Nuvoloso | 25 | 20 | 73 | 1011 | 10 | O/NO 33.3 | |
| Ieri h: 07:20 | Poco Nuvoloso | 24 | 20 | 78 | 1010 | 10 | O/NO 37 | |
| Ieri h: 06:50 | Sereno | 24 | 20 | 78 | 1010 | 0 | NO 37 | |
| Ieri h: 06:20 | Sereno | 24 | 20 | 78 | 1010 | 0 | NO 38.8 | |
| Ieri h: 05:50 | Sereno | 24 | 20 | 78 | 1010 | 0 | NO 38.8 | |
| Ieri h: 05:20 | Sereno | 25 | 19 | 69 | 1010 | 0 | NO 42.6 | |
| Ieri h: 04:50 | Sereno | 24 | 20 | 78 | 1010 | 0 | NO 37 | |



